Location: Drocourt
(49.0571°N, 1.7669°E)
Time: 13:06:59
(UTC+00:00)

Cosmos 2369 Rocket - Pass Details

Date: 09 February 2023
Orbit: 829 x 852 km, 71.0° (Epoch: 23 March)

Event Time Altitude Azimuth Distance (km) Brightness Sun altitude
Rises 20:23:30 0° 333° (NNW) 3,383 5.9 -33.0°
Reaches altitude 10° 20:26:00 10° 338° (NNW) 2,447 5.0 -33.4°
Enters shadow 20:28:29 26° 348° (NNW) 1,579 3.8 -33.8°
